TimeMST,TemperatureF,Dew PointF,Humidity,Sea Level PressureIn,VisibilityMPH,Wind Direction,Wind SpeedMPH,Gust SpeedMPH,PrecipitationIn,Events,Conditions,WindDirDegrees,DateUTC
12:54 AM,51.1,48.0,89,29.96,10.0,Calm,Calm,-,N/A,,Clear,0,2013-08-24 07:54:00
1:54 AM,51.1,46.9,86,29.95,10.0,Calm,Calm,-,N/A,,Clear,0,2013-08-24 08:54:00
2:54 AM,50.0,46.0,86,29.96,10.0,NE,3.5,-,N/A,,Clear,50,2013-08-24 09:54:00
3:54 AM,52.0,48.9,89,29.95,10.0,Calm,Calm,-,N/A,,Overcast,0,2013-08-24 10:54:00
4:54 AM,54.0,50.0,86,29.94,10.0,ENE,3.5,-,0.01,Rain,Light Rain,60,2013-08-24 11:54:00
5:41 AM,53.6,51.8,94,30.24,2.5,ENE,8.1,-,0.06,Rain,Light Rain,60,2013-08-24 12:41:00
5:54 AM,54.0,51.1,90,29.98,10.0,NE,4.6,-,0.06,,Overcast,40,2013-08-24 12:54:00
6:54 AM,55.9,52.0,87,30.00,10.0,Calm,Calm,-,N/A,,Overcast,0,2013-08-24 13:54:00
7:54 AM,57.9,55.0,90,30.04,10.0,Calm,Calm,-,N/A,,Partly Cloudy,0,2013-08-24 14:54:00
8:54 AM,63.0,54.0,72,30.02,10.0,Calm,Calm,-,N/A,,Clear,0,2013-08-24 15:54:00
9:54 AM,64.9,51.1,61,30.04,10.0,South,4.6,-,N/A,,Partly Cloudy,170,2013-08-24 16:54:00
10:54 AM,66.0,52.0,60,30.06,10.0,SSW,8.1,-,N/A,,Partly Cloudy,210,2013-08-24 17:54:00
11:54 AM,64.9,53.1,65,30.07,10.0,SW,15.0,-,N/A,,Mostly Cloudy,220,2013-08-24 18:54:00
12:54 PM,63.0,54.0,72,30.08,10.0,SSW,12.7,19.6,N/A,,Scattered Clouds,210,2013-08-24 19:54:00
1:08 PM,62.6,53.6,72,30.30,10.0,SSW,10.4,-,N/A,,Mostly Cloudy,210,2013-08-24 20:08:00
1:54 PM,64.0,52.0,65,30.06,10.0,South,9.2,-,N/A,,Partly Cloudy,190,2013-08-24 20:54:00
2:54 PM,64.0,53.1,67,30.03,10.0,SSE,3.5,-,N/A,,Mostly Cloudy,150,2013-08-24 21:54:00
3:54 PM,70.0,51.1,51,29.96,10.0,NNE,4.6,-,N/A,,Partly Cloudy,20,2013-08-24 22:54:00
4:54 PM,70.0,48.9,47,29.95,10.0,NW,4.6,-,N/A,,Clear,320,2013-08-24 23:54:00
5:54 PM,66.9,50.0,54,29.97,10.0,SW,5.8,-,N/A,,Clear,230,2013-08-25 00:54:00
6:54 PM,62.1,54.0,75,30.01,10.0,Calm,Calm,-,N/A,,Clear,0,2013-08-25 01:54:00
7:54 PM,57.9,53.1,84,30.03,10.0,Calm,Calm,-,N/A,,Clear,0,2013-08-25 02:54:00
8:54 PM,55.0,52.0,89,30.04,10.0,Calm,Calm,-,N/A,,Clear,0,2013-08-25 03:54:00
9:54 PM,57.0,52.0,83,30.03,10.0,Calm,Calm,-,N/A,,Clear,0,2013-08-25 04:54:00
10:54 PM,54.0,51.1,90,30.04,10.0,Calm,Calm,-,N/A,,Clear,0,2013-08-25 05:54:00
11:54 PM,54.0,51.1,90,30.04,10.0,ENE,4.6,-,N/A,,Clear,60,2013-08-25 06:54:00